Change the Weather History Date:

Sunday, January 6, 2013

  Actual Average Record
Temperature  
Mean Temperature 48 °F -  
Max Temperature 53 °F 58 °F 71 °F (2012)
Min Temperature 44 °F 35 °F 24 °F (2014)
Degree Days  
Heating Degree Days 16    
Moisture  
Dew Point 42 °F    
Average Humidity 80    
Maximum Humidity 100    
Minimum Humidity 54    
Precipitation  
Precipitation 0.00 in - - ()
Sea Level Pressure  
Sea Level Pressure 30.20 in    
Wind  
Wind Speed 1 mph (WSW)    
Max Wind Speed 7 mph    
Max Gust Speed -    
Visibility 10 miles    
Events Rain    
Averages and records for this station are not official NWS values.
T = Trace of Precipitation, MM = Missing Value Source: NWS Daily Summary

Daily Weather History Graph

Daily Weather History Graph

Search for Another Location

Airport or City:

Trip Planner

Search our weather history database for the weather conditions in past years. The results will help you decide how hot, cold, wet, or windy it might be!

Date:

Astronomy

Jan. 06, 2013 Rise Set
Actual Time 7:26 AM EST 5:31 PM EST
Civil Twilight 6:58 AM EST 5:58 PM EST
Nautical Twilight 6:28 AM EST 6:29 PM EST
Astronomical Twilight 5:58 AM EST 6:58 PM EST
Moon 1:45 AM EST (1/6) 12:51 PM EST (1/6)
Length of Visible Light 10h 59m
Length of Day
10h 05m
Waning Crescent, 33% of the Moon is Illuminated
Jan 6
Waning Crescent
Jan 11
New
Jan 18
First Quarter
Jan 26
Full
Feb 3
Last Quarter

Hourly Weather History & Observations

Time (EST) Temp. Windchill Dew Point Humidity Pressure Visibility Wind Dir Wind Speed Gust Speed Precip Events Conditions
12:15 AM 44.6 °F - 42.8 °F 93% 30.29 in 10.0 mi Calm Calm - N/A   Overcast
12:35 AM 44.6 °F - 42.8 °F 93% 30.28 in 10.0 mi Calm Calm - N/A   Scattered Clouds
12:55 AM 44.6 °F - 42.8 °F 93% 30.28 in 10.0 mi Calm Calm - N/A   Scattered Clouds
1:15 AM 44.6 °F - 42.8 °F 93% 30.28 in 10.0 mi Calm Calm - N/A   Mostly Cloudy
1:35 AM 44.6 °F - 44.6 °F 100% 30.27 in 10.0 mi Calm Calm - N/A Rain Light Rain
1:55 AM 44.6 °F - 44.6 °F 100% 30.27 in 10.0 mi Calm Calm - N/A   Mostly Cloudy
2:15 AM 44.6 °F - 44.6 °F 100% 30.25 in 10.0 mi Calm Calm - N/A Rain Light Rain
2:55 AM 44.6 °F - 44.6 °F 100% 30.24 in 10.0 mi Calm Calm - N/A Rain Light Rain
3:15 AM 44.6 °F - 44.6 °F 100% 30.24 in 10.0 mi Calm Calm - N/A   Drizzle
3:55 AM 44.6 °F 43.1 °F 44.6 °F 100% 30.21 in 10.0 mi ESE 3.5 mph - N/A   Overcast
4:15 AM 44.6 °F - 44.6 °F 100% 30.21 in 10.0 mi Calm Calm - N/A Rain Light Rain
4:35 AM 44.6 °F - 44.6 °F 100% 30.20 in 10.0 mi Calm Calm - N/A   Light Drizzle
4:55 AM 44.6 °F - 44.6 °F 100% 30.21 in 10.0 mi Calm Calm - N/A   Mostly Cloudy
5:35 AM 44.6 °F - 44.6 °F 100% 30.21 in 10.0 mi Calm Calm - N/A   Overcast
5:55 AM 44.6 °F - 44.6 °F 100% 30.22 in 10.0 mi Calm Calm - N/A   Overcast
6:15 AM 44.6 °F - 44.6 °F 100% 30.22 in 10.0 mi Calm Calm - N/A   Overcast
6:35 AM 44.6 °F - 42.8 °F 93% 30.21 in 10.0 mi Calm Calm - N/A   Overcast
6:55 AM 44.6 °F - 42.8 °F 93% 30.22 in 10.0 mi Calm Calm - N/A   Overcast
7:15 AM 44.6 °F - 44.6 °F 100% 30.23 in 10.0 mi Calm Calm - N/A   Overcast
7:35 AM 44.6 °F - 44.6 °F 100% 30.22 in 10.0 mi Calm Calm - N/A   Scattered Clouds
7:55 AM 44.6 °F - 44.6 °F 100% 30.23 in 10.0 mi Calm Calm - N/A   Scattered Clouds
8:15 AM 44.6 °F - 44.6 °F 100% 30.23 in 10.0 mi Calm Calm - N/A   Mostly Cloudy
8:35 AM 46.4 °F - 44.6 °F 93% 30.25 in 10.0 mi Calm Calm - N/A   Overcast
8:55 AM 46.4 °F - 44.6 °F 93% 30.24 in 10.0 mi Calm Calm - N/A   Overcast
9:35 AM 46.4 °F - 44.6 °F 93% 30.24 in 10.0 mi Calm Calm - N/A   Overcast
9:55 AM 46.4 °F - 44.6 °F 93% 30.25 in 10.0 mi Calm Calm - N/A   Overcast
10:15 AM 50.0 °F - 44.6 °F 82% 30.25 in 10.0 mi Calm Calm - N/A   Overcast
10:35 AM 50.0 °F - 42.8 °F 76% 30.25 in 10.0 mi Calm Calm - N/A   Overcast
10:55 AM 50.0 °F - 41.0 °F 71% 30.24 in 10.0 mi NW 3.5 mph - N/A   Overcast
11:15 AM 51.8 °F - 41.0 °F 67% 30.23 in 10.0 mi NW 3.5 mph - N/A   Overcast
11:35 AM 51.8 °F - 42.8 °F 71% 30.21 in 10.0 mi Calm Calm - N/A   Overcast
11:55 AM 51.8 °F - 41.0 °F 67% 30.20 in 10.0 mi Calm Calm - N/A   Overcast
12:15 PM 51.8 °F - 41.0 °F 67% 30.20 in 10.0 mi West 3.5 mph - N/A   Overcast
12:35 PM 51.8 °F - 39.2 °F 62% 30.19 in 10.0 mi WNW 3.5 mph - N/A   Overcast
12:55 PM 53.6 °F - 37.4 °F 54% 30.17 in 10.0 mi West 6.9 mph - N/A   Overcast
1:15 PM 53.6 °F - 37.4 °F 54% 30.16 in 10.0 mi West 4.6 mph - N/A   Overcast
1:35 PM 53.6 °F - 37.4 °F 54% 30.15 in 10.0 mi West 3.5 mph - N/A   Overcast
1:55 PM 53.6 °F - 37.4 °F 54% 30.15 in 10.0 mi SSW 3.5 mph - N/A   Overcast
2:15 PM 53.6 °F - 37.4 °F 54% 30.15 in 10.0 mi SSW 4.6 mph - N/A   Overcast
2:35 PM 53.6 °F - 37.4 °F 54% 30.14 in 10.0 mi SW 3.5 mph - N/A   Overcast
2:55 PM 53.6 °F - 37.4 °F 54% 30.15 in 10.0 mi SW 3.5 mph - N/A   Overcast
3:15 PM 53.6 °F - 37.4 °F 54% 30.15 in 10.0 mi SW 5.8 mph - N/A   Overcast
3:35 PM 53.6 °F - 37.4 °F 54% 30.14 in 10.0 mi WSW 3.5 mph - N/A   Overcast
3:55 PM 53.6 °F - 39.2 °F 58% 30.14 in 10.0 mi SW 4.6 mph - N/A   Overcast
4:15 PM 53.6 °F - 39.2 °F 58% 30.13 in 10.0 mi SSW 3.5 mph - N/A   Overcast
4:35 PM 53.6 °F - 41.0 °F 62% 30.13 in 10.0 mi SSW 4.6 mph - N/A   Overcast
4:55 PM 51.8 °F - 41.0 °F 67% 30.12 in 10.0 mi SW 3.5 mph - N/A   Overcast
5:15 PM 51.8 °F - 41.0 °F 67% 30.12 in 10.0 mi South 4.6 mph - N/A   Overcast
5:35 PM 51.8 °F - 41.0 °F 67% 30.13 in 10.0 mi Calm Calm - N/A   Overcast
5:55 PM 51.8 °F - 41.0 °F 67% 30.13 in 10.0 mi SW 4.6 mph - N/A Rain Light Rain
6:15 PM 51.8 °F - 41.0 °F 67% 30.14 in 10.0 mi SW 4.6 mph - N/A   Overcast
7:15 PM 50.0 °F - 42.8 °F 76% 30.13 in 10.0 mi SW 5.8 mph - N/A   Overcast
7:35 PM 50.0 °F - 42.8 °F 76% 30.14 in 10.0 mi SW 5.8 mph - N/A   Overcast
7:55 PM 50.0 °F - 42.8 °F 76% 30.15 in 10.0 mi West 4.6 mph - N/A   Overcast
8:15 PM 50.0 °F - 42.8 °F 76% 30.16 in 10.0 mi West 5.8 mph - N/A   Overcast
8:35 PM 50.0 °F - 42.8 °F 76% 30.16 in 10.0 mi West 5.8 mph - N/A   Overcast
8:55 PM 50.0 °F - 42.8 °F 76% 30.16 in 10.0 mi West 4.6 mph - N/A   Overcast
9:15 PM 50.0 °F - 42.8 °F 76% 30.16 in 10.0 mi WSW 3.5 mph - N/A   Mostly Cloudy
9:35 PM 50.0 °F - 42.8 °F 76% 30.16 in 10.0 mi WSW 4.6 mph - N/A   Scattered Clouds
9:55 PM 50.0 °F - 42.8 °F 76% 30.17 in 10.0 mi West 4.6 mph - N/A   Mostly Cloudy
10:55 PM 46.4 °F 45.2 °F 42.8 °F 87% 30.19 in 10.0 mi WNW 3.5 mph - N/A   Clear
11:15 PM 46.4 °F - 42.8 °F 87% 30.19 in 10.0 mi Calm Calm - N/A   Clear
11:35 PM 44.6 °F 42.2 °F 42.8 °F 93% 30.19 in 10.0 mi West 4.6 mph - N/A   Clear
11:55 PM 46.4 °F 43.5 °F 42.8 °F 87% 30.20 in 10.0 mi WNW 5.8 mph - N/A   Clear